This is the latest recevied weather packets stored in our database for station/object WB9ZLM. If no packets are shown the sender has not sent any weather packets the latest 10 day(s).
| Time | Temp. | Humidity | Pressure | Rain* | Wind** | Luminosity | Snow |
|---|---|---|---|---|---|---|---|
| 1777983421 | 10° C | 64% | 1013.3 hPa | 0 mm | - | - | - |
| 1777983360 | 10° C | 64% | 1013.3 hPa | 0 mm | - | - | - |
| 1777982521 | 10.56° C | 60% | 1012.8 hPa | 0 mm | - | - | - |
| 1777982460 | 10.56° C | 60% | 1012.8 hPa | 0 mm | - | - | - |
| 1777981621 | 10.56° C | 60% | 1011.2 hPa | 0 mm | - | - | - |
| 1777981560 | 10.56° C | 60% | 1011.2 hPa | 0 mm | - | - | - |
| 1777980721 | 11.11° C | 60% | 1010.9 hPa | 0 mm | - | - | - |
| 1777980660 | 11.11° C | 60% | 1010.9 hPa | 0 mm | - | - | - |
| 1777979821 | 11.11° C | 57% | 1011.6 hPa | 0 mm | - | - | - |
| 1777979760 | 11.11° C | 57% | 1011.6 hPa | 0 mm | - | - | - |
| 1777978921 | 11.67° C | 56% | 1011.4 hPa | 0 mm | - | - | - |
| 1777978860 | 11.67° C | 56% | 1011.4 hPa | 0 mm | - | - | - |
| 1777978021 | 11.67° C | 57% | 1011.1 hPa | 0 mm | - | - | - |
| 1777977960 | 11.67° C | 57% | 1011.1 hPa | 0 mm | - | - | - |
| 1777977121 | 11.67° C | 56% | 1011.2 hPa | 0 mm | - | - | - |
| 1777977060 | 11.67° C | 56% | 1011.2 hPa | 0 mm | - | - | - |
| 1777976222 | 11.67° C | 58% | 1010.2 hPa | 0 mm | - | - | - |
| 1777976160 | 11.67° C | 58% | 1010.2 hPa | 0 mm | - | - | - |
| 1777975321 | 11.67° C | 58% | 1010.4 hPa | 0 mm | - | - | - |
| 1777975260 | 11.67° C | 58% | 1010.4 hPa | 0 mm | - | - | - |
| 1777974421 | 11.67° C | 59% | 1010.2 hPa | 0 mm | - | - | - |
| 1777974360 | 11.67° C | 59% | 1010.2 hPa | 0 mm | - | - | - |
| 1777973521 | 12.22° C | 58% | 1010.2 hPa | 0 mm | - | - | - |
| 1777973460 | 12.22° C | 58% | 1010.2 hPa | 0 mm | - | - | - |
| 1777972622 | 12.22° C | 57% | 1010.3 hPa | 0 mm | - | - | - |
* Rain latest hour (hover to see other rain measurements)
** Current wind speed in m/s (hover to see current wind gust speed)